Content
SEND FEEDBACK

Daily
Averages
Monthly
Summary
United States of America

LIHUE, HAWAII


Home > North America > United States > Hawaii
Elevation: 103 feet     Latitude: 21 59N     Longitude: 159 21W

WEATHER
 
SELECT A DAY
Number of Records: 219,492;   Date Range: 1/1/95 - 9/18/14
 
SHARE

PRINT THIS DATA

[ ← Previous Day ]
WEATHER ALMANAC - FEBRUARY 8, 2013
[ Next Day → ]
[ °C ]   °F
Weather ElementAverageHighLow
Temperature70.1 °F77 °F (11:53 am) (6:53 pm)
Dewpoint62.5 °F66.9 °F (11:53 am) (7:00 pm)
Humidity76.4 %88 % (10:28 pm)67 % (2:53 pm)
Barometer30.12 in30.17 in (10:09 am)30.08 in (2:53 pm)
Wind Speed8.2 mph11.5 mph (4:22 am)
Weather ElementAverage
Visibility10 mi
Wind DirectionESE (115.6 °)

Weather ElementTotal
Precipitation---
Heating Degree Days26.5 (Base 65)
Averaged from 36 records on February 8, 2013
WEATHER CONDITIONS BREAKOUT
WIND DIRECTION BREAKOUT
WEATHER BY HOUR - FEBRUARY 8, 2013
[ °C ]   °F
Local TimeTemperatureDewpointHumidityBarometerVisibilityWind DirectionWind SpeedGust SpeedPrecipitationEventsConditions
12:50 AM71.6 °F66.2 °F83 %30.14 in10.0 miENE (70°)10.4 mphOvercast
12:53 AM72.0 °F66.0 °F81 %30.13 in10.0 miENE (70°)9.2 mphOvercast
1:53 AM72.0 °F66.0 °F81 %30.14 in10.0 miENE (70°)9.2 mphOvercast
2:53 AM72.0 °F64.9 °F78 %30.12 in10.0 miENE (70°)10.4 mphMostly Cloudy
3:46 AM71.6 °F64.4 °F78 %30.11 in10.0 miENE (60°)10.4 mphMostly Cloudy
3:53 AM72.0 °F64.9 °F78 %30.11 in10.0 miENE (70°)10.4 mphOvercast
4:22 AM71.6 °F64.4 °F78 %30.10 in10.0 miENE (70°)11.5 mphMostly Cloudy
4:53 AM72.0 °F64.9 °F78 %30.10 in10.0 miENE (70°)11.5 mphOvercast
5:24 AM71.6 °F64.4 °F78 %30.11 in10.0 miENE (70°)11.5 mphOvercast
5:44 AM71.6 °F64.4 °F78 %30.11 in10.0 miENE (70°)10.4 mphOvercast
5:53 AM72.0 °F64.9 °F78 %30.11 in10.0 miENE (70°)10.4 mphOvercast
6:53 AM72.0 °F64.9 °F78 %30.13 in10.0 miENE (60°)10.4 mphOvercast
7:53 AM72.0 °F64.9 °F78 %30.14 in10.0 miENE (70°)10.4 mphPartly Cloudy
8:53 AM73.9 °F64.9 °F73 %30.15 in10.0 miENE (70°)9.2 mphScattered Clouds
9:53 AM75.0 °F66.0 °F73 %30.16 in10.0 miENE (70°)9.2 mphScattered Clouds
10:09 AM75.2 °F64.4 °F69 %30.17 in10.0 miENE (60°)9.2 mphMostly Cloudy
10:16 AM75.2 °F64.4 °F69 %30.17 in10.0 miENE (70°)9.2 mphScattered Clouds
10:53 AM75.9 °F66.0 °F71 %30.16 in10.0 miENE (60°)9.2 mphPartly Cloudy
11:53 AM77.0 °F66.9 °F71 %30.14 in10.0 miENE (70°)8.1 mphPartly Cloudy
12:53 PM75.9 °F66.0 °F71 %30.12 in10.0 miEast (80°)6.9 mphScattered Clouds
1:53 PM75.9 °F64.9 °F69 %30.09 in10.0 miENE (60°)8.1 mphClear
2:53 PM75.9 °F64.0 °F67 %30.08 in10.0 miENE (70°)8.1 mphClear
3:53 PM75.9 °F64.0 °F67 %30.08 in10.0 miNE (50°)9.2 mphClear
4:53 PM75.0 °F64.0 °F69 %30.09 in10.0 miNE (50°)8.1 mphClear
5:43 PM73.4 °F62.6 °F69 %30.10 in10.0 miNE (50°)6.9 mphMostly Cloudy
5:53 PM73.0 °F63.0 °F71 %30.10 in10.0 miNE (40°)8.1 mphMostly Cloudy
6:02 PM71.6 °F62.6 °F73 %30.10 in10.0 miNE (40°)6.9 mphScattered Clouds
6:53 PM0.0 °F0.0 °F30.10 in10.0 miNE (50°)5.8 mphClear
7:53 PM70.0 °F62.1 °F76 %30.11 in10.0 miNNW (330°)3.5 mphPartly Cloudy
8:06 PM69.8 °F62.6 °F78 %30.11 in10.0 miWNW (290°)4.6 mphMostly Cloudy
8:53 PM69.1 °F63.0 °F81 %30.12 in10.0 miWNW (290°)4.6 mphOvercast
9:53 PM68.0 °F63.0 °F84 %30.12 in10.0 miWNW (300°)4.6 mphScattered Clouds
10:28 PM66.2 °F62.6 °F88 %30.13 in10.0 miWNW (290°)5.8 mphMostly Cloudy
10:46 PM66.2 °F62.6 °F88 %30.13 in10.0 miWNW (300°)4.6 mphScattered Clouds
10:53 PM66.9 °F62.1 °F84 %30.13 in10.0 miWNW (300°)4.6 mphPartly Cloudy
11:53 PM66.0 °F62.1 °F87 %30.12 in10.0 miWest (280°)5.8 mphClear
Hourly data recorded from PHLI, located miles away from Lihue, Hawaii







STORIES FROM OUR PARTNERS